sat.trackr.live / text

‹ back to catalog

STARLINK-2034

NORAD 47352 · 2021-005D

PAYLOAD ACTIVE UNKNOWN

§ Identity

Operator
Country
US
Launch date
2021-01-20
Launch site
AFETR
Launch vehicle
Mass (kg)
RCS (m²)

Purposes: comms

External: N2YO · Heavens-Above · Gunter

§ Orbital elements

Epoch: 2026-09-19T15:34:59.151072Z

Period
94.01 min
Inclination
53.1591°
Eccentricity
0.0001220
Mean motion
15.31697513 rev/d
Perigee alt
469.9 km
Apogee alt
471.6 km
Semi-major
6,848.9 km
B*
1.9405e-6
RAAN
230.0727°
Arg perigee
90.5330°
Mean anomaly
269.5812°
Rev number
31,289

§ Raw data

STARLINK-20341 47352U 21005D   26262.64929573 -.00000305  00000+0  19405-5 0  99942 47352  53.1591 230.0727 0001220  90.5330 269.5812 15.31697513312890

JSON: /api/v1/satellites/47352 · /tle

For live sub-satellite position, see the globe view (requires WebGL).

§ Visibility from observer

Set your observer location to see the next 7 days of passes ≥ 10°. The values pass through the URL so the page stays shareable.

No JS? Fill the form by hand. The geolocation button needs JavaScript.